Regional Weather Roundup
Issued by NWS

Home | Current Version | Previous Version | Text Only | Print | Product List | Glossary On
Versions: 1 2 3 4 5 6 7 8 9 10 11 12 13 14 15 16 17 18 19 20 21 22 23 24 25 26 27 28 29 30 31 32 33 34 35 36 37 38 39 40 41 42 43 44 45 46 47 48 49 50
000
ASUS44 KOUN 160410
RWROK

WEATHER ROUNDUP FOR OKLAHOMA
NATIONAL WEATHER SERVICE NORMAN OK
1100 PM CDT TUE APR 15 2014

NOTE: "FAIR" INDICATES FEW OR NO CLOUDS BELOW 12,000 FEET WITH NO
      SIGNIFICANT WEATHER AND/OR OBSTRUCTIONS TO VISIBILITY.

OKZ001>007-009>012-014-015-017-160500-
NORTHWEST OKLAHOMA AND THE PANHANDLE

CITY           SKY/WX    TMP DP  RH WIND       PRES   REMARKS
GAGE           MOCLDY    54  13  19 S21G31    29.88F
ENID/VANCE AFB CLEAR     51  22  32 S20       29.97F
ENID/WOODRING  CLEAR     46  21  36 S12       29.98F
$$

OKZ016-021>023-033>039-044-045-160500-
SOUTHWEST OKLAHOMA

CITY           SKY/WX    TMP DP  RH WIND       PRES   REMARKS
LAWTON/REGL    CLEAR     49  21  33 SE7       30.04S
LAWTON/FT SILL CLEAR     49  21  32 S12       30.02F
FREDERICK      CLEAR     46  16  30 SE10      29.99F
CLINTON        PTCLDY    50  16  25 S18       29.98F
HOBART         CLEAR     50  15  24 S13       30.00F
ALTUS AFB      CLEAR     51  16  24 SE13      30.00F
$$

OKZ018>020-024>031-160500-
CENTRAL OKLAHOMA

CITY           SKY/WX    TMP DP  RH WIND       PRES   REMARKS
OKLAHOMA CITY  PTCLDY    49  23  36 S12       30.04F
OKC/WILEY POST CLEAR     52  20  28 S14       30.03F
OKC/TINKER AFB CLEAR     50  26  38 S10       30.04F
STILLWATER     PTCLDY    51  23  33 S13       30.03F
GUTHRIE        CLEAR     53  21  28 S12G17    30.03F
$$

OKZ008-013-054>072-160500-
NORTHEAST OKLAHOMA

CITY           SKY/WX    TMP DP  RH WIND       PRES   REMARKS
TULSA          MOCLDY    52  26  36 S10       30.08S
TULSA/JONES    PTCLDY    53  27  36 S7        30.09S
PONCA CITY     CLEAR     55  19  24 S17G25    30.00F
BARTLESVILLE   CLEAR     49  29  46 S10       30.07F
MUSKOGEE       CLEAR     45  31  58 SE6       30.13S
$$

OKZ032-040>043-046>053-073>077-160500-
SOUTH CENTRAL/SOUTHEAST OKLAHOMA

CITY           SKY/WX    TMP DP  RH WIND       PRES   REMARKS
ARDMORE/DWNTWN   N/A     48  28  46 S3        30.10F
MCALESTER      PTCLDY    51  27  39 S6        30.13R
$$




USA.gov is the U.S. government's official web portal to all federal, state and local government web resources and services.